Weather History for VTBD - November, 2013

Change the Weather History Date:

Monday, November 18, 2013

  Actual Average Record
Temperature  
Mean Temperature 86 °F -  
Max Temperature 94 °F 87 °F - ()
Min Temperature 77 °F 72 °F - ()
Cooling Degree Days 20    
Growing Degree Days 36 (Base 50)    
Moisture  
Dew Point 71 °F    
Average Humidity 65    
Maximum Humidity 83    
Minimum Humidity 38    
Precipitation  
Precipitation 0.00 in 0.03 in - ()
Sea Level Pressure  
Sea Level Pressure 29.89 in    
Wind  
Wind Speed 3 mph ()    
Max Wind Speed 7 mph    
Max Gust Speed -    
Visibility 6.1 miles    
Events      
T = Trace of Precipitation, MM = Missing Value Source: Averaged Metar Reports

Daily Weather History Graph

Daily Weather History Graph

Search for Another Location

Airport or City:

Trip Planner

Search our weather history database for the weather conditions in past years. The results will help you decide how hot, cold, wet, or windy it might be!

Date:

Astronomy

Nov. 18, 2013 Rise Set
Actual Time 6:18 AM ICT 5:46 PM ICT
Civil Twilight 5:56 AM ICT 6:09 PM ICT
Nautical Twilight 5:30 AM ICT 6:34 PM ICT
Astronomical Twilight 5:04 AM ICT 7:00 PM ICT
Moon 6:25 PM ICT (11/18) 6:39 AM ICT (11/18)
Length of Visible Light 12h 12m
Length of Day
11h 27m
Full, 100% of the Moon is Illuminated
Nov 18
Full
Nov 26
Last Quarter
Dec 3
New
Dec 9
First Quarter
Dec 17
Full

Hourly Weather History & Observations

Time (ICT) Temp. Heat Index Dew Point Humidity Pressure Visibility Wind Dir Wind Speed Gust Speed Precip Events Conditions
12:00 AM 80.6 °F 84.6 °F 71.6 °F 74% 29.89 in 6.2 mi NE 4.6 mph - N/A   Mostly Cloudy
12:30 AM 80.6 °F 84.6 °F 71.6 °F 74% 29.89 in 6.2 mi North 3.5 mph - N/A   Mostly Cloudy
1:00 AM 80 °F - 72 °F 69% 29.89 in 6 mi NE 4.6 mph - -   Scattered Clouds
1:00 AM 80.6 °F 84.6 °F 71.6 °F 74% 29.89 in 6.2 mi NE 4.6 mph - N/A   Mostly Cloudy
1:30 AM 78.8 °F - 71.6 °F 78% 29.86 in 6.2 mi East 3.5 mph - N/A   Mostly Cloudy
2:00 AM 78.8 °F - 71.6 °F 78% 29.86 in 6.2 mi East 3.5 mph - N/A   Mostly Cloudy
2:30 AM 78.8 °F - 71.6 °F 78% 29.86 in 6.2 mi East 2.3 mph - N/A   Mostly Cloudy
3:00 AM 78.8 °F - 71.6 °F 78% 29.86 in 6.2 mi Calm Calm - N/A   Scattered Clouds
3:30 AM 78.8 °F - 71.6 °F 78% 29.86 in 6.2 mi Calm Calm - N/A   Scattered Clouds
4:00 AM 78.8 °F - 71.6 °F 78% 29.89 in 6.2 mi Calm Calm - N/A   Mostly Cloudy
4:30 AM 77.0 °F - 71.6 °F 83% 29.89 in 5.6 mi Calm Calm - N/A   Mostly Cloudy
5:00 AM 77.0 °F - 71.6 °F 83% 29.89 in 5.6 mi Calm Calm - N/A   Mostly Cloudy
5:30 AM 77.0 °F - 71.6 °F 83% 29.89 in 5.6 mi Calm Calm - N/A   Mostly Cloudy
6:00 AM 77.0 °F - 71.6 °F 83% 29.89 in 5.6 mi NNW 3.5 mph - N/A   Mostly Cloudy
6:30 AM 77.0 °F - 71.6 °F 83% 29.89 in 6.2 mi Calm Calm - N/A   Mostly Cloudy
7:00 AM 77 °F - 71 °F 78% 29.93 in 6 mi ESE 2.3 mph - -   Scattered Clouds
7:00 AM 77.0 °F - 71.6 °F 83% 29.92 in 6.2 mi ESE 2.3 mph - N/A   Mostly Cloudy
7:30 AM 78.8 °F - 71.6 °F 78% 29.92 in 6.2 mi North 5.8 mph - N/A   Mostly Cloudy
8:00 AM 78.8 °F - 71.6 °F 78% 29.92 in 6.2 mi NNW 3.5 mph - N/A   Mostly Cloudy
8:30 AM 78.8 °F - 71.6 °F 78% 29.92 in 6.2 mi Calm Calm - N/A   Mostly Cloudy
9:00 AM 80.6 °F 84.6 °F 71.6 °F 74% 29.95 in 6.2 mi ENE 2.3 mph - N/A   Mostly Cloudy
9:30 AM 82.4 °F 87.2 °F 71.6 °F 70% 29.95 in 6.2 mi East 3.5 mph - N/A   Mostly Cloudy
10:00 AM 82 °F - 71 °F 61% 29.96 in 6 mi ESE 3.5 mph - -   Scattered Clouds
10:00 AM 82.4 °F 86.3 °F 69.8 °F 66% 29.95 in 6.2 mi ESE 3.5 mph - N/A   Mostly Cloudy
10:30 AM 82.4 °F 86.3 °F 69.8 °F 66% 29.95 in 6.2 mi East 3.5 mph - N/A   Mostly Cloudy
11:00 AM 84.2 °F 89.6 °F 71.6 °F 66% 29.92 in 6.2 mi ENE 4.6 mph - N/A   Mostly Cloudy
11:30 AM 87.8 °F 93.8 °F 71.6 °F 58% 29.92 in 6.2 mi NE 4.6 mph - N/A   Mostly Cloudy
12:00 PM 89.6 °F 94.7 °F 69.8 °F 52% 29.89 in 6.2 mi ESE 2.3 mph - N/A   Scattered Clouds
12:30 PM 89.6 °F 94.7 °F 69.8 °F 52% 29.89 in 6.2 mi East 6.9 mph - N/A   Scattered Clouds
1:00 PM 92 °F - 70 °F 38% 29.88 in 6 mi ENE 6.9 mph - -   Scattered Clouds
1:00 PM 91.4 °F 96.8 °F 69.8 °F 49% 29.86 in 6.2 mi ENE 6.9 mph - N/A   Scattered Clouds
1:30 PM 93.2 °F 98.8 °F 69.8 °F 46% 29.86 in 6.2 mi East 5.8 mph - N/A   Scattered Clouds
2:00 PM 93.2 °F 98.8 °F 69.8 °F 46% 29.83 in 6.2 mi ENE 5.8 mph - N/A   Scattered Clouds
2:30 PM 95.0 °F 101.3 °F 69.8 °F 44% 29.83 in 6.2 mi East 5.8 mph - N/A   Scattered Clouds
3:00 PM 93.2 °F 100.5 °F 71.6 °F 49% 29.83 in 6.2 mi ENE 5.8 mph - N/A   Scattered Clouds
3:30 PM 93.2 °F 100.5 °F 71.6 °F 49% 29.80 in 6.2 mi East 4.6 mph - N/A   Scattered Clouds
4:00 PM 93 °F - 72 °F 41% 29.83 in 6 mi East 6.9 mph - -   Scattered Clouds
4:00 PM 93.2 °F 100.5 °F 71.6 °F 49% 29.83 in 6.2 mi East 6.9 mph - N/A   Scattered Clouds
4:30 PM 91.4 °F 98.4 °F 71.6 °F 52% 29.83 in 6.2 mi ENE 4.6 mph - N/A   Scattered Clouds
5:00 PM 91.4 °F 98.4 °F 71.6 °F 52% 29.83 in 6.2 mi ESE 4.6 mph - N/A   Scattered Clouds
5:30 PM 89.6 °F 96.2 °F 71.6 °F 55% 29.83 in 6.2 mi SE 5.8 mph - N/A   Scattered Clouds
6:00 PM 87.8 °F 93.8 °F 71.6 °F 58% 29.83 in 6.2 mi ESE 4.6 mph - N/A   Mostly Cloudy
6:30 PM 86.0 °F 91.8 °F 71.6 °F 62% 29.86 in 6.2 mi East 3.5 mph - N/A   Mostly Cloudy
7:00 PM 87 °F - 72 °F 52% 29.87 in 6 mi ESE 4.6 mph - -   Scattered Clouds
7:00 PM 87.8 °F 93.8 °F 71.6 °F 58% 29.86 in 6.2 mi ESE 4.6 mph - N/A   Mostly Cloudy
7:30 PM 86.0 °F 91.8 °F 71.6 °F 62% 29.86 in 6.2 mi East 4.6 mph - N/A   Scattered Clouds
8:00 PM 86.0 °F 91.8 °F 71.6 °F 62% 29.89 in 6.2 mi East 3.5 mph - N/A   Scattered Clouds
8:30 PM 86.0 °F 91.8 °F 71.6 °F 62% 29.92 in 6.2 mi SE 2.3 mph - N/A   Scattered Clouds
9:00 PM 86.0 °F 93.4 °F 73.4 °F 66% 29.92 in 6.2 mi SE 2.3 mph - N/A   Scattered Clouds
9:30 PM 84.2 °F 90.9 °F 73.4 °F 70% 29.92 in 6.2 mi ESE 2.3 mph - N/A   Scattered Clouds
10:00 PM 85 °F - 72 °F 57% 29.94 in 6 mi East 1.2 mph - -   Scattered Clouds
10:00 PM 84.2 °F 89.6 °F 71.6 °F 66% 29.92 in 6.2 mi East 1.2 mph - N/A   Scattered Clouds
10:30 PM 84.2 °F 90.9 °F 73.4 °F 70% 29.92 in 6.2 mi South 1.2 mph - N/A   Scattered Clouds
11:00 PM 84.2 °F 89.6 °F 71.6 °F 66% 29.92 in 6.2 mi SE 2.3 mph - N/A   Scattered Clouds
11:30 PM 84.2 °F 89.6 °F 71.6 °F 66% 29.92 in 6.2 mi East 1.2 mph - N/A   Scattered Clouds